Regional Weather Roundup
Issued by NWS Newport/Morehead, NC

Current Version | Previous Version | Graphics & Text | Print | Product List | Glossary On
Versions: 1 2 3 4 5 6 7 8 9 10 11 12 13 14 15 16 17 18 19 20 21 22 23 24 25 26 27 28 29 30 31 32 33 34 35 36 37 38 39 40 41 42 43 44 45 46 47 48 49 50
000 ASUS42 KMHX 291213 RWRMHX WEATHER ROUNDUP FOR EASTERN NORTH CAROLINA NATIONAL WEATHER SERVICE NEWPORT/MOREHEAD CITY NC 800 AM EDT FRI APR 29 2016 NOTE: "FAIR" INDICATES FEW OR NO CLOUDS BELOW 12,000 FEET WITH NO SIGNIFICANT WEATHER AND/OR OBSTRUCTIONS TO VISIBILITY NCZ015>017-031-032-045>047-102-103-291300- NORTH COAST CITY SKY/WX TMP DP RH WIND PRES REMARKS EDENTON CLOUDY 58 58 100 N8G16 29.98R FOG ELIZABETH CITY CLOUDY 56 54 93 N14 29.98R KITTY HAWK CLOUDY 56 56 100 N6 29.94R FOG MANTEO NOT AVBL $$ NCZ045>047-081-094-103-104-291300- CENTRAL COAST CITY SKY/WX TMP DP RH WIND PRES REMARKS FRISCO PTSUNNY 63 61 93 NE8 29.92R SWANQUARTER NOT AVBL $$ NCZ095-097-098-100-101-291300- SOUTHERN COAST CITY SKY/WX TMP DP RH WIND PRES REMARKS BEAUFORT CLOUDY 66 64 93 NE9 29.92R CEDAR ISLAND NOT AVBL JACKSONVILLE CLOUDY 67 64 90 N9 29.93R PINEY ISLAND NOT AVBL WILMINGTON SUNNY 70 65 84 NW7 29.93R $$ NCZ011>013-027>030-043-044-078>080-089-090>093-098-291300- COASTAL PLAIN CITY SKY/WX TMP DP RH WIND PRES REMARKS AHOSKIE DRIZZLE 55 54 97 N9 29.99R CLINTON CLOUDY 65 65 100 N6 29.96R FOG ELIZABETHTOWN CLOUDY 66 65 98 NW6 29.96R FOG GOLDSBORO CLOUDY 63 63 100 N8 29.95R GREENVILLE CLOUDY 59 59 100 N8 29.99R FOG HAVELOCK CLOUDY 65 63 93 NE10 29.94R FOG KENANSVILLE CLOUDY 64 64 98 CALM 29.96R FOG KINSTON CLOUDY 61 61 100 N9 29.97R FOG NEW BERN CLOUDY 63 61 93 NW6 29.95R RICHLANDS CLOUDY 66 65 96 N7 29.94R FOG ROCKY MOUNT CLOUDY 59 58 96 N9 29.98R FOG WASHINGTON FOG 59 58 98 N6 29.96R VSB 3/4 WHITEVILLE CLOUDY 69 67 90 N3 29.94R FOG $$ AMZ130-135-150-152-154-156-158-170-250-252-270-ANZ085-086-088-633-658-670-291300- MARINE OBSERVATIONS STATION/POSITION TIME TEMP WIND PRES WAVE SWELL AIR SEA DIR/SP/G HT/PER HT/PER (UTC) (F) (DEG/KT/KT) (MB) (FT/S) (FT/S) CHESAPEAKE LIGHT 1100 52 30/ 20/ 22 1014.5 64 E VA BEACH 1150 54 54 20/ 12/ 14 1013.6 4/ 7 3/ 7 DUCK 1100 55 66 10/ 14/ 21 1012.8 2 E DUCK 1111 58 N/A 4/ 4 OREGON INLET 1100 56 64 360/ 14/ 17 1013.2 13E OREGON INLT 1200 58 N/A 4/ 4 2/ 5 HATTERAS CG 1100 64 70 30/ 10/ 13 1012.0 DIAMOND BUOY 1150 67 71 40/ 8/ 10 1012.7 3/ 5 2/ 5 CAPE LOOKOUT 1200 67 10/ 9/ 12 1013.0 BEAUFORT LAB 1100 68 67 10/ 8/ 13 1011.9 30 SE NEW RVR IN 1125 67 N/A 3/ 6 27 SE WRIGHTSVLE 1108 70 69 280/ 8/ 10 1015.5 5 SE WRIGHTSVLE 1108 68 67 300/ 4/ 6 1013.4 225 S CAPE HAT 1150 71 71 190/ 14/ 16 1015.0 3/10 2/10 41 SE CHARLESTON 1150 72 71 260/ 12/ 16 1013.7 3/ 5 2/ 9 $$

USA.gov is the U.S. government's official web portal to all federal, state and local government web resources and services.